Погода в Гордеевке

Россия / Брянская область     52°57′28″N   31°58′12″E
темп.,
°C
ветер,
м/с
пор.,
м/с
влажн.,
%
обл.,
%
осадки,
мм/ч
давл.,
гПа
погр.,
м
31 июля, сб
сб3100:00+18зюз226817 0.0 100816
03:00+19юз2465100 0.0 100896
06:00+18зюз36745 0.0 1008112
09:00+22з46615 0.0 1009585
12:00+26з684376 0.0 10091698
15:00+28з68385 0.0 10092064
18:00+27з4643100 0.0 10091249
21:00+22вюв115646 0.0 100911
1 августа, вс
вс100:00+20ююв3461100 0.0 101056
03:00+19ю497212 0.1 1009135
06:00+19ююз38775 0.0 1010156
09:00+23юз45665 0.1 1010453
12:00+26зюз4553100 0.0 1011973
15:00+28зюз454936 0.0 10101194
18:00+28сз225137 0.0 1009768
21:00+19ююз5897100 7.7 1010255
2 августа, пн
пн200:00+18ююз3592100 2.9 100987
03:00+17ю229276 2.9 100835
06:00+17ююв379796 0.0 1007211
09:00+20ююв4687100 0.0 1005270
12:00+28ююз71056100 0.0 10041247
15:00+27зюз51053100 0.0 1003427
18:00+21ююв59820 1.3 1003169
21:00+21зюз51174100 1.9 1003334
3 августа, вт
вт300:00+17з71190100 0.1 1005598
03:00+15зсз6129198 0.5 1008611
06:00+16з499096 0.0 1009427
09:00+19зсз57719 0.0 1011728
12:00+23з565173 0.1 10111852
15:00+21з466418 1.1 1011954
18:00+20зсз47670 1.8 1012318
21:00+18юз33733 1.9 101356
4 августа, ср
ср400:00+14зсз33767 0.0 101445
03:00+13зсз22905 0.0 101524
06:00+13з23920 0.0 101655
09:00+19з34670 0.0 1017536
12:00+22зюз445595 0.4 10161522
15:00+22з2356100 1.5 1016809
18:00+22ююз225598 0.0 1016354
21:00+18ююв2262100 0.0 101615